Tracking 31027 objects as of 19-Jul-2025
HD Live streaming from Space Station
objects crossing your sky now

STARLINK-2068

Track STARLINK-2068 now!
10-day predictions
STARLINK-2068 is classified as:


NORAD ID: 47722
Int'l Code: 2021-017A
Perigee: 553.4 km
Apogee: 555.3 km
Inclination: 53.1 °
Period: 95.6 minutes
Semi major axis: 6925 km
RCS: Unknown
Launch date: March 4, 2021
Source: United States (US)
Launch site: AIR FORCE EASTERN TEST RANGE (AFETR)
Your satellite tracking list
IRIDIUM 106
Track 1 satellite(s)




NASA's NSSDC Master Catalog

Two Line Element Set (TLE):
1 47722U 21017A   25199.19722847  .00000370  00000-0  43743-4 0  9994
2 47722  53.0543 169.5385 0001341  76.9324 283.1814 15.06399920241964
Source of the keplerian elements: AFSPC